Location: Geremba
(10.4250°N, 67.2394°W)
Time: 17:35:07
(UTC+00:00)

Cosmos 1244 Rocket - Visible Passes

Search period start: 07 October 2024 00:00
Search period end: 17 October 2024 00:00
Orbit: 953 x 997 km, 82.9° (Epoch: 06 October)

Date Brightness Start Highest point End Pass type
(mag) Time Alt. Az. Time Alt. Az. Time Alt. Az.
13 Oct 6.9 00:34:43 10° N 00:34:49 10° N 00:34:49 10° N visible
13 Oct 6.5 23:16:24 10° NE 23:16:29 10° NE 23:16:29 10° NE visible
14 Oct 6.9 01:00:37 10° NNW 01:14:26 - SSW 01:01:15 13° NNW visible
14 Oct 5.4 23:40:17 10° NNE 23:52:31 - SSE 23:43:36 30° NNE visible
15 Oct 7.2 01:27:56 10° WNW 01:36:56 - SW 01:28:26 11° WNW visible
16 Oct 4.4 00:05:10 10° N 00:11:31 85° W 00:17:50 10° S visible
16 Oct 5.8 22:47:35 10° NE 22:51:29 17° E 22:55:21 10° ESE visible
